User: anonymous   Login
Location: Bernadets
(43.3537°N, 0.3167°E)
Time: 09:11:18
(UTC+00:00)
Language:

Cosmos 371 Rocket - Orbit

View from above orbital plane
View from above orbital plane
View from above satellite
View from above satellite

Ground track
Ground track

The orbit data is extracted from the following two-line orbital elements,

1 04579U 70083B   22024.66916785  .00000136  00000-0  34092-4 0  9993
2 04579  74.0026 112.4818 0009237  69.2563 290.9592 14.60579991720324
Epoch (UTC): 24 January 2022 16:03:36
Eccentricity: 0.0009237
inclination: 74.0026°
perigee height: 685 km
apogee height: 698 km
right ascension of ascending node: 112.4818°
argument of perigee: 69.2563°
revolutions per day: 14.60579991
mean anomaly at epoch: 290.9592°
orbit number at epoch: 72032

The dashed part of the orbit path shows where the satellite is in the earth's shadow,  

DLR